Date,TemperatureHighF,TemperatureAvgF,TemperatureLowF,DewpointHighF,DewpointAvgF,DewpointLowF,HumidityHigh,HumidityAvg,HumidityLow,PressureMaxIn,PressureMinIn,WindSpeedMaxMPH,WindSpeedAvgMPH,GustSpeedMaxMPH,PrecipitationSumIn
2013-1-1,71,59,50,67,58,48,99,96,85,30.10,29.89,6,2,12,0.53
2013-1-2,49,46,44,48,44,42,95,91,84,30.21,30.07,5,3,7,0.04
2013-1-7,59,54,46,47,43,40,86,69,51,30.32,30.15,5,1,6,0.01
2013-1-8,61,55,49,61,52,43,100,91,76,30.18,30.06,4,1,7,4.36
2013-1-9,65,62,60,65,62,60,100,100,99,30.15,30.06,4,2,6,3.07
2013-1-10,72,66,63,70,65,63,100,99,95,30.13,29.95,7,2,11,2.62
2013-1-11,71,68,64,71,67,64,100,99,95,30.08,29.97,2,1,4,1.14
2013-1-12,79,73,68,72,70,68,100,91,69,30.01,29.87,5,2,6,0.01
2013-1-13,77,65,48,73,63,47,97,94,81,30.08,29.80,6,2,13,0.98
2013-1-14,48,45,38,48,44,38,99,97,94,30.15,30.03,6,2,11,2.23
2013-1-15,47,44,40,47,44,40,99,99,98,30.06,29.94,4,2,6,0.08
2013-1-16,40,37,36,40,37,36,98,97,94,30.17,30.02,6,3,12,0.14
2013-1-17,54,43,37,39,36,32,97,79,49,30.43,30.17,7,2,10,0.00
2013-1-18,58,44,36,41,37,34,97,78,43,30.53,30.38,4,1,6,0.00
2013-1-19,68,49,35,50,44,34,99,83,53,30.38,30.21,3,0,4,0.00
2013-1-20,68,50,39,50,42,37,100,77,32,30.27,30.12,3,0,5,0.00
2013-1-21,68,53,40,51,44,40,99,77,42,30.22,30.13,4,0,5,0.00
2013-1-22,63,50,43,45,42,38,98,76,49,30.35,30.20,3,1,5,0.00
2013-1-23,72,55,40,53,47,39,100,78,41,30.39,30.27,2,0,4,0.00
2013-1-24,75,60,46,61,54,46,100,85,61,30.33,30.20,3,0,8,0.00
2013-1-25,76,62,51,62,57,51,100,85,60,30.24,30.13,3,1,7,0.00
2013-1-26,78,62,54,66,58,53,100,87,55,30.24,30.14,3,0,5,0.00
2013-1-27,75,62,50,64,58,50,100,87,63,30.24,30.15,6,2,8,0.00
2013-1-28,76,66,57,67,63,56,99,90,70,30.22,30.08,4,1,5,0.00
2013-1-29,81,71,64,71,68,64,100,90,68,30.08,29.83,5,2,6,0.00
2013-1-30,60,54,44,55,41,33,98,63,39,30.18,29.71,11,4,14,1.75
2013-1-31,62,49,35,42,35,27,98,64,28,30.34,30.18,3,1,4,0.00
2013-2-1,67,51,41,44,41,38,96,72,39,30.41,30.28,3,0,5,0.00
2013-2-2,71,55,41,54,48,40,98,79,47,30.32,30.16,4,1,6,0.00
2013-2-3,70,56,44,56,43,30,100,69,23,30.28,30.10,5,1,11,0.00
2013-2-4,63,53,43,56,49,40,98,88,59,30.10,29.93,3,1,5,0.09
2013-2-5,65,58,56,62,58,56,100,98,86,30.01,29.92,2,1,3,0.00
2013-2-6,66,62,58,63,60,58,100,92,82,30.10,29.97,5,2,7,0.18
2013-2-7,68,61,54,61,58,54,100,92,78,29.95,29.86,3,1,5,1.77
2013-2-8,71,62,52,62,57,50,100,88,63,30.16,30.02,6,2,9,0.00
2013-2-9,62,60,56,60,57,52,95,88,81,30.21,30.01,5,3,8,0.00
2013-2-10,77,70,62,72,68,62,98,92,85,29.97,29.86,4,2,6,0.06
2013-2-11,58,57,56,56,56,54,99,95,87,30.13,30.00,3,1,7,0.84
2013-2-12,70,62,57,69,62,57,100,100,96,29.92,29.72,4,2,6,0.15
2013-2-16,52,52,51,26,24,22,36,34,31,30.24,30.22,7,6,12,0.00
2013-2-17,35,34,33,33,32,30,96,93,84,30.30,30.29,0,0,2,0.00
2013-2-18,65,63,56,62,58,52,90,82,72,30.16,29.95,5,3,10,0.00
2013-2-19,67,59,50,53,41,30,92,54,26,30.22,30.09,6,3,12,0.23
2013-2-20,58,53,41,41,34,28,72,48,34,30.25,30.00,7,3,9,0.00
2013-2-21,72,66,54,70,61,40,97,86,58,30.00,29.74,5,3,10,0.38
2013-2-22,69,62,55,60,54,51,97,77,55,29.98,29.86,2,1,6,0.57
2013-2-23,62,56,52,56,53,51,98,91,79,29.96,29.85,3,1,6,0.35
2013-2-24,64,56,49,60,53,47,99,91,75,29.96,29.68,6,1,6,2.39
2013-2-25,66,63,58,66,60,42,99,91,53,29.74,29.42,5,2,8,2.97
2013-2-26,60,54,48,47,42,36,88,64,50,29.92,29.57,6,3,11,0.00
2013-2-27,71,61,47,52,46,42,98,61,35,30.04,29.92,4,1,6,0.00
2013-2-28,52,49,46,39,35,31,76,59,45,30.16,30.07,6,2,8,0.00
2013-3-1,58,52,41,38,34,31,77,51,36,30.17,30.07,8,4,14,0.00
2013-3-2,47,40,31,35,30,27,91,67,51,30.27,30.16,6,3,12,0.00
2013-3-3,58,41,30,33,30,28,93,67,39,30.30,30.15,3,1,4,0.00
2013-3-4,72,66,50,59,56,48,91,71,56,30.08,29.91,5,2,7,0.00
2013-3-5,74,66,54,65,52,37,93,64,36,30.19,29.91,8,3,11,0.00
2013-3-6,64,56,38,34,30,27,74,38,26,30.35,30.19,5,3,9,0.00
2013-3-11,60,51,44,44,42,39,97,74,47,30.03,29.90,7,4,17,0.57
2013-3-12,69,60,48,45,40,35,82,49,34,30.21,30.09,5,2,9,0.00
2013-3-13,68,59,41,44,32,22,95,40,18,30.40,30.21,7,3,13,0.00
2013-3-14,65,52,38,36,33,29,87,50,30,30.45,30.36,3,1,4,0.00
2013-3-20,72,61,48,51,40,30,92,51,24,30.18,30.01,6,2,12,0.05
2013-3-21,48,47,45,39,36,34,76,65,59,30.04,30.00,0,0,2,0.00
2013-3-22,79,69,60,70,64,57,95,86,73,29.83,29.73,3,1,8,0.00
2013-3-23,70,69,66,70,68,65,100,97,93,29.80,29.55,2,0,4,0.02
2013-3-24,70,62,52,70,44,32,99,54,32,29.98,29.59,10,5,15,0.01
2013-3-25,58,50,38,32,27,22,76,44,26,30.27,30.13,7,4,15,0.00
2013-3-26,56,48,34,34,27,22,82,46,32,30.42,30.27,6,2,11,0.00
2013-3-27,65,54,35,40,32,29,87,47,27,30.45,30.26,3,1,6,0.00
2013-3-28,73,56,38,46,42,37,98,63,33,30.35,30.21,3,1,5,0.00
2013-3-29,78,68,45,57,53,44,96,60,43,30.31,30.15,3,1,5,0.00
2013-3-30,78,71,53,62,59,52,96,67,47,30.17,30.00,2,1,4,0.00
2013-3-31,60,59,57,58,58,56,97,96,94,30.03,29.99,0,0,2,0.00
2013-4-3,65,61,55,65,60,53,100,96,88,29.95,29.75,5,1,6,1.39
2013-4-11,68,60,51,61,56,50,98,87,79,29.84,29.66,6,3,10,0.76
2013-4-12,76,59,46,54,49,44,99,74,33,29.98,29.84,4,1,8,0.00
2013-4-13,77,65,50,53,50,46,95,64,35,30.02,29.85,4,2,9,0.00
2013-4-14,77,69,61,66,63,60,99,83,65,29.81,29.72,4,1,8,1.01
2013-4-15,80,70,59,74,69,59,100,95,82,29.94,29.79,2,1,6,0.01
2013-4-16,85,78,73,76,74,72,98,89,73,30.05,29.93,4,2,8,0.00
2013-4-17,87,78,73,76,73,71,96,85,69,30.05,29.91,5,2,9,0.00
2013-4-18,86,78,59,76,72,57,95,83,67,29.91,29.75,7,2,12,0.59
2013-4-19,62,53,45,58,46,41,98,78,48,30.18,29.86,8,3,11,0.12
2013-4-20,71,55,40,51,44,39,99,72,35,30.26,30.09,3,1,8,0.00
2013-4-21,75,61,45,55,50,44,99,71,44,30.20,30.08,3,1,7,0.00
2013-4-24,70,64,58,70,62,55,99,92,84,30.17,29.96,7,2,8,2.35
2013-4-25,78,62,53,63,55,52,95,81,49,30.31,30.17,3,1,7,0.00
2013-4-30,71,68,66,69,67,66,98,95,90,29.87,29.81,2,0,5,0.26
2013-5-1,81,70,66,72,68,65,100,93,72,29.88,29.79,3,0,4,0.69
2013-5-2,77,70,64,70,67,63,99,91,72,29.94,29.84,3,0,7,0.65
2013-5-3,68,58,52,68,56,45,99,93,78,29.99,29.88,6,3,12,0.02
2013-5-22,80,72,66,74,70,66,99,92,76,29.97,29.88,3,0,4,1.45
2013-5-23,93,76,66,79,72,65,100,87,59,30.04,29.93,5,0,6,0.35
2013-5-24,92,77,65,78,71,65,100,84,56,30.13,30.00,2,0,4,0.00
2013-5-25,88,75,67,72,67,62,95,78,57,30.20,30.11,3,1,7,0.00
2013-5-26,87,75,67,73,69,66,100,82,55,30.16,30.07,3,1,5,0.00
2013-5-27,92,76,65,73,69,65,100,81,48,30.10,29.98,2,1,7,0.15
2013-5-28,87,76,67,75,71,67,100,85,60,30.05,29.95,4,1,8,0.00
2013-6-9,93,82,71,76,73,68,99,77,50,29.95,29.85,4,1,5,0.42
2013-6-10,93,81,73,80,76,73,100,86,63,30.00,29.93,2,0,4,0.00
2013-7-7,82,76,73,78,75,73,99,95,85,30.07,30.00,3,0,4,1.71
2013-7-8,93,78,72,80,75,72,100,92,64,30.14,30.03,3,0,3,0.00
2013-7-9,92,82,72,80,76,72,100,84,59,30.17,30.04,1,0,3,0.00
2013-7-10,93,79,74,80,76,74,100,92,60,30.09,30.06,2,0,3,0.00
2013-7-17,91,85,76,79,75,72,96,74,56,30.19,30.08,4,2,7,0.00
2013-7-18,91,79,72,79,75,71,100,88,61,30.15,29.98,4,0,6,0.77
2013-7-19,93,81,72,80,75,70,100,83,50,30.04,29.91,2,0,5,0.00
2013-7-20,93,80,73,79,75,72,100,87,57,29.98,29.93,2,0,2,0.00
2013-7-21,83,78,72,79,76,72,100,91,79,30.06,29.97,2,0,4,1.32
2013-7-22,92,81,72,82,77,72,100,89,65,30.04,29.97,3,0,5,0.00
2013-7-23,93,84,76,81,78,76,100,83,62,30.04,29.90,3,1,6,0.00
2013-7-24,93,84,77,80,78,76,98,83,60,29.97,29.86,3,1,6,0.00
2013-7-25,94,82,75,81,76,73,97,83,62,30.02,29.90,2,0,4,0.00
2013-7-26,92,76,71,76,73,71,100,90,58,30.05,30.00,1,0,2,0.00
2013-7-27,81,78,75,78,77,73,99,96,87,29.90,29.83,4,0,6,0.45
2013-7-28,92,81,73,79,76,72,100,86,60,29.99,29.88,2,0,4,0.01
2013-7-29,97,83,74,81,77,73,100,84,49,30.08,29.98,2,0,5,0.00
2013-7-30,96,84,75,80,77,74,100,83,57,30.13,30.04,2,0,4,0.00
2013-8-4,93,81,76,81,76,74,95,84,67,30.02,29.95,2,0,4,0.00
2013-8-5,96,84,74,81,77,74,100,83,55,30.04,29.93,3,1,4,0.00
2013-8-6,98,85,76,81,78,75,100,81,51,29.99,29.88,2,0,5,0.00
2013-8-7,89,79,76,80,77,75,100,95,77,29.96,29.90,2,0,3,0.00
2013-8-9,78,77,77,77,77,76,100,99,98,29.99,29.92,1,0,2,0.70
2013-8-10,96,83,75,82,78,75,100,85,56,30.05,29.96,4,0,7,0.01
2013-8-11,76,75,75,76,75,75,100,99,98,30.04,30.02,0,0,2,0.00
2013-8-14,79,76,74,79,76,74,100,98,94,29.98,29.89,2,0,4,1.42
2013-8-15,89,78,71,79,74,71,100,89,61,29.97,29.89,3,0,5,0.00
2013-8-16,75,74,72,74,73,72,100,99,96,29.94,29.90,1,0,2,0.00
2013-9-21,73,73,73,73,73,73,100,100,100,29.76,29.76,0,0,2,0.00
2013-12-8,48,46,44,48,46,43,100,100,99,30.10,30.01,3,1,5,1.55
2013-12-9,49,47,45,49,47,44,100,100,99,30.13,30.06,6,1,7,0.22
2013-12-10,48,40,37,44,38,35,99,93,69,30.37,30.13,6,4,12,0.01
2013-12-21,74,73,67,72,71,64,95,94,86,29.78,29.75,4,2,7,0.01
2013-12-22,67,60,57,64,59,56,98,96,84,29.99,29.78,3,1,4,0.16